LKMT Weather Reports


time (UTC)temp
C
wind
direction
speed
KPH
gust
KPH
rain 1hr
cm
rain 24hr
cm
rain mn
cm
humidity
%
barometer
mb
20260903170235 20 250 9.7 0.0 0.00 0.00 0.00 52 1018.0
20260903163231 22 270 12.9 0.0 0.00 0.00 0.00 46 1018.0
20260903162529 22 260 14.5 0.0 0.00 0.00 0.00 40
20260903160235 22 260 14.5 0.0 0.00 0.00 0.00 43 1018.0
20260903153230 23 260 14.5 0.0 0.00 0.00 0.00 41 1018.0
20260903152237 22 260 19.3 0.0 0.00 0.00 0.00 46
20260903150233 22 260 16.1 0.0 0.00 0.00 0.00 43 1018.0
20260903143231 22 240 16.1 0.0 0.00 0.00 0.00 49 1018.0
20260903142206 22 260 19.3 0.0 0.00 0.00 0.00 46
20260903140235 23 260 19.3 0.0 0.00 0.00 0.00 38 1018.0
20260903133231 23 260 11.3 0.0 0.00 0.00 0.00 44 1018.0
20260903132405 23 0 8.0 0.0 0.00 0.00 0.00 41
20260903130236 23 310 9.7 0.0 0.00 0.00 0.00 41 1018.0
20260903123231 22 350 4.8 0.0 0.00 0.00 0.00 49 1018.0
20260903122204 22 360 11.3 0.0 0.00 0.00 0.00 49
20260903120234 22 360 9.7 0.0 0.00 0.00 0.00 53 1019.0
20260903113231 22 240 19.3 0.0 0.00 0.00 0.00 49 1018.0
20260903112155 22 220 19.3 0.0 0.00 0.00 0.00 53
20260903110234 22 220 20.9 0.0 0.00 0.00 0.00 49 1019.0
20260903103224 22 210 20.9 0.0 0.00 0.00 0.00 49 1019.0
20260903102558 22 200 19.3 0.0 0.00 0.00 0.00 49
20260903100232 22 190 16.1 0.0 0.00 0.00 0.00 49 1019.0
20260903093231 22 200 16.1 0.0 0.00 0.00 0.00 56 1019.0
20260903092157 22 220 14.5 0.0 0.00 0.00 0.00 53
20260903090233 22 230 14.5 0.0 0.00 0.00 0.00 53 1020.0
20260903083231 21 0 8.0 0.0 0.00 0.00 0.00 60 1020.0
20260903082155 20 0 11.3 0.0 0.00 0.00 0.00 64
20260903080239 18 250 8.0 0.0 0.00 0.00 0.00 63 1020.0
20260903073231 17 240 8.0 0.0 0.00 0.00 0.00 72 1020.0
20260903072356 17 0 3.2 0.0 0.00 0.00 0.00 72
20260903070239 17 0 3.2 0.0 0.00 0.00 0.00 77 1020.0
20260903063230 16 0 3.2 0.0 0.00 0.00 0.00 82 1020.0
20260903062155 16 0 8.0 0.0 0.00 0.00 0.00 77
20260903060234 15 210 8.0 0.0 0.00 0.00 0.00 82 1020.0
20260903053223 13 230 9.7 0.0 0.00 0.00 0.00 87 1020.0
20260903052156 13 0 3.2 0.0 0.00 0.00 0.00 87
20260903050226 13 200 3.2 0.0 0.00 0.00 0.00 82 1020.0
20260903043224 12 0 1.6 0.0 0.00 0.00 0.00 93 1020.0
20260903042558 13 0 3.2 0.0 0.00 0.00 0.00 82
20260903040233 13 0 1.6 0.0 0.00 0.00 0.00 87 1020.0
20260903033224 13 260 4.8 0.0 0.00 0.00 0.00 87 1019.0
20260903032155 13 0 8.0 0.0 0.00 0.00 0.00 87
20260903030234 13 280 3.2 0.0 0.00 0.00 0.00 87 1020.0
20260903023224 15 190 9.7 0.0 0.00 0.00 0.00 82 1020.0
20260903022155 15 190 11.3 0.0 0.00 0.00 0.00 82
20260903020233 15 180 11.3 0.0 0.00 0.00 0.00 82 1020.0
20260903013224 16 170 8.0 0.0 0.00 0.00 0.00 77 1020.0
20260903012356 16 170 8.0 0.0 0.00 0.00 0.00 77
20260903010233 16 170 8.0 0.0 0.00 0.00 0.00 77 1020.0
20260903003224 16 200 8.0 0.0 0.00 0.00 0.00 77 1020.0
20260903002158 15 180 3.2 0.0 0.00 0.00 0.00 82
20260903000233 15 0 3.2 0.0 0.00 0.00 0.00 87 1020.0
20260902233224 15 230 9.7 0.0 0.00 0.00 0.00 82 1020.0
20260902232155 15 210 8.0 0.0 0.00 0.00 0.00 82
20260902230232 15 0 3.2 0.0 0.00 0.00 0.00 82 1020.0
20260902223223 16 0 3.2 0.0 0.00 0.00 0.00 77 1020.0
20260902222558 16 190 3.2 0.0 0.00 0.00 0.00 82
20260902220231 16 190 3.2 0.0 0.00 0.00 0.00 82 1020.0
20260902213224 16 0 0.0 0.0 0.00 0.00 0.00 82 1019.0
20260902212211 17 0 0.0 0.0 0.00 0.00 0.00 77
20260902210241 17 20 1.6 0.0 0.00 0.00 0.00 77 1019.0
20260902203231 17 130 1.6 0.0 0.00 0.00 0.00 77 1019.0
20260902202214 17 0 3.2 0.0 0.00 0.00 0.00 77
20260902200235 17 0 0.0 0.0 0.00 0.00 0.00 77 1019.0
20260902193223 17 0 1.6 0.0 0.00 0.00 0.00 77 1019.0
20260902192358 18 0 3.2 0.0 0.00 0.00 0.00 68
20260902190239 18 0 1.6 0.0 0.00 0.00 0.00 68 1019.0
20260902183231 20 100 4.8 0.0 0.00 0.00 0.00 64 1019.0
20260902182155 21 70 8.0 0.0 0.00 0.00 0.00 56
20260902180234 20 60 3.2 0.0 0.00 0.00 0.00 64 1019.0
20260902173230 22 0 3.2 0.0 0.00 0.00 0.00 53 1019.0
20260902172358 22 0 3.2 0.0 0.00 0.00 0.00 53